User: anonymous   Login
Location: Bacea
(45.9500°N, 22.6667°E)
Time: 16:01:24
(UTC+00:00)
Language:

Cosmos 489 Rocket - Orbit

View from above orbital plane
View from above orbital plane
View from above satellite
View from above satellite

Ground track
Ground track

The orbit data is extracted from the following two-line orbital elements,

1 06020U 72035B   22021.92921808 -.00000029  00000-0 -55173-5 0  9990
2 06020  74.0215 347.5285 0021815 301.8106 116.0581 13.78856141500437
Epoch (UTC): 21 January 2022 22:18:04
Eccentricity: 0.0021815
inclination: 74.0215°
perigee height: 952 km
apogee height: 984 km
right ascension of ascending node: 347.5285°
argument of perigee: 301.8106°
revolutions per day: 13.78856141
mean anomaly at epoch: 116.0581°
orbit number at epoch: 50043

The dashed part of the orbit path shows where the satellite is in the earth's shadow,  

DLR